CDT,Max TemperatureF,Mean TemperatureF,Min TemperatureF,Max Dew PointF,MeanDew PointF,Min DewpointF,Max Humidity, Mean Humidity, Min Humidity, Max Sea Level PressureIn, Mean Sea Level PressureIn, Min Sea Level PressureIn, Max VisibilityMiles, Mean VisibilityMiles, Min VisibilityMiles, Max Wind SpeedMPH, Mean Wind SpeedMPH, Max Gust SpeedMPH,PrecipitationIn, CloudCover, Events, WindDirDegrees
2013-3-1,60,46,32,30,25,19,87,50,22,30.32,30.25,30.18,10,10,10,22,6,30,0.00,1,,327
2013-3-2,60,45,30,30,29,25,93,58,29,30.44,30.33,30.22,10,10,10,15,7,22,0.00,0,,327
2013-3-3,78,56,35,30,27,23,75,38,13,30.21,30.00,29.78,10,10,10,24,10,31,0.00,0,,195
2013-3-4,82,70,57,36,27,16,42,22,10,29.81,29.73,29.67,10,10,10,26,17,37,0.00,0,,224
2013-3-5,59,50,39,41,19,9,66,36,14,30.40,30.28,29.90,10,10,10,32,21,46,0.00,0,,353
2013-3-6,60,48,35,21,16,12,52,31,16,30.44,30.32,30.17,10,10,10,13,6,18,0.00,0,,129
2013-3-7,71,54,37,48,31,19,82,43,25,30.19,30.13,30.06,10,10,10,18,9,26,0.00,0,,163
2013-3-8,62,58,53,59,55,50,100,88,77,30.13,30.05,29.93,10,9,3,24,13,31,0.00,8,Rain,155
2013-3-9,78,68,57,61,58,55,100,78,51,29.93,29.78,29.63,10,9,4,28,16,34,0.40,7,Rain-Thunderstorm,180
2013-3-10,59,48,37,54,32,23,88,52,35,30.12,29.97,29.79,10,10,10,29,13,37,0.00,3,Rain,320
2013-3-11,66,49,32,28,21,16,64,40,15,30.16,30.08,29.98,10,10,10,13,7,17,0.00,0,,300
2013-3-12,75,58,41,34,30,23,65,40,14,30.33,30.10,30.00,10,10,10,21,9,23,0.00,0,,160
2013-3-13,69,55,41,37,33,28,65,46,27,30.44,30.35,30.27,10,10,10,16,6,21,0.00,0,,123
2013-3-14,77,59,41,43,40,36,81,50,26,30.34,30.26,30.18,10,10,10,20,8,26,0.00,0,,180
2013-3-15,80,66,53,50,45,39,88,48,23,30.19,30.05,29.91,10,10,10,25,15,31,0.00,0,,198
2013-3-16,87,72,57,50,46,41,72,45,22,29.90,29.78,29.67,10,10,10,23,17,31,0.00,0,,190
2013-3-17,71,60,50,59,47,37,88,62,38,29.85,29.76,29.70,10,10,10,16,9,23,0.00,3,,254
2013-3-18,69,60,51,52,44,36,88,55,35,30.00,29.85,29.69,10,10,10,21,9,28,0.00,0,,2
2013-3-19,69,55,41,50,44,37,87,67,49,30.12,30.00,29.93,10,10,10,17,6,25,0.02,2,Rain-Thunderstorm,96
2013-3-20,68,54,41,45,33,27,82,49,21,30.31,30.18,30.03,10,10,10,15,8,18,0.00,0,Thunderstorm,67
2013-3-21,78,64,50,55,44,32,73,51,39,30.02,29.73,29.52,10,10,10,25,13,36,0.00,2,,177
2013-3-22,64,53,42,55,46,39,93,74,55,29.83,29.73,29.56,10,10,10,24,16,32,0.00,2,,334
2013-3-23,68,54,41,55,47,39,100,84,56,29.85,29.74,29.64,10,9,4,22,5,43,0.00,5,Thunderstorm,65
2013-3-24,51,42,33,46,25,16,87,53,28,30.21,30.10,29.87,10,10,7,30,19,38,0.00,1,,345
2013-3-25,53,42,30,21,18,14,64,41,22,30.41,30.31,30.18,10,10,10,14,7,23,0.00,0,,5
2013-3-26,62,47,32,25,18,14,60,34,16,30.47,30.36,30.25,10,10,7,13,4,22,0.00,0,,162
2013-3-27,69,53,37,45,33,23,63,44,27,30.27,30.18,30.08,10,10,10,26,13,33,0.00,0,,176
2013-3-28,73,58,44,55,50,43,93,70,47,30.18,30.12,30.07,10,10,10,20,12,28,0.00,3,,173
2013-3-29,78,66,53,55,53,52,100,66,39,30.16,30.09,30.02,10,10,10,18,11,28,0.00,4,Rain,180
2013-3-30,82,70,57,59,56,54,88,65,39,30.10,29.98,29.87,10,10,10,17,10,24,0.00,3,Rain-Thunderstorm,182
2013-3-31,78,69,60,61,54,46,88,59,32,30.01,29.94,29.86,10,10,10,25,11,31,0.00,1,,95